EW6791 Weather Reports


Display with metric or nautical units.
time (UTC)temp
F
wind
direction
speed
MPH
gust
MPH
rain 1hr
in
rain 24hr
in
rain mn
in
humidity
%
barometer
mb
20260503010017 44 240 0.0 0.0 0.00 0.00 0.00 41 1012.9
20260503004516 46 240 0.0 0.0 0.00 0.00 0.00 37 1012.8
20260503003027 47 181 0.0 2.0 0.00 0.00 0.00 36 1012.8
20260503001515 47 113 0.0 3.0 0.00 0.00 0.00 33 1012.8
20260503000026 48 167 1.0 3.0 0.00 0.00 0.00 32 1012.8
20260502234517 49 130 0.0 2.0 0.00 0.00 0.00 31 1012.9
20260502233013 50 193 0.0 2.0 0.00 0.00 0.00 32 1012.9
20260502231511 49 192 1.0 3.0 0.00 0.00 0.00 31 1013.0
20260502230010 49 65 0.0 3.0 0.00 0.00 0.00 32 1013.2
20260502224509 50 163 0.0 4.0 0.00 0.00 0.00 28 1013.3
20260502223022 52 172 1.0 4.0 0.00 0.00 0.00 25 1013.4
20260502221506 52 191 1.0 5.0 0.00 0.00 0.00 28 1013.5
20260502220006 52 276 1.0 5.0 0.00 0.00 0.00 28 1013.7
20260502214503 51 290 1.0 4.0 0.00 0.00 0.00 29 1013.8
20260502213002 51 241 3.0 6.0 0.00 0.00 0.00 25 1013.9
20260502211600 50 181 2.0 6.0 0.00 0.00 0.00 28 1014.0
20260502210057 50 172 1.0 7.0 0.00 0.00 0.00 30 1014.2
20260502204556 50 262 3.0 7.0 0.00 0.00 0.00 25 1014.3
20260502203111 50 279 2.0 8.0 0.00 0.00 0.00 29 1014.5
20260502201550 49 156 1.0 6.0 0.00 0.00 0.00 30 1014.6
20260502200055 50 217 1.0 5.0 0.00 0.00 0.00 28 1014.8
20260502194544 48 289 2.0 6.0 0.00 0.00 0.00 30 1015.1
20260502193042 48 295 0.0 8.0 0.00 0.00 0.00 38 1015.3
20260502191544 47 201 1.0 3.0 0.00 0.00 0.00 32 1015.5
20260502190038 47 280 2.0 6.0 0.00 0.00 0.00 35 1015.5
20260502184536 47 260 1.0 4.0 0.00 0.00 0.00 35 1015.6
20260502183037 47 122 1.0 5.0 0.00 0.00 0.00 33 1015.7
20260502181532 46 177 1.0 4.0 0.00 0.00 0.00 37 1015.8
20260502163036 42 259 1.0 4.0 0.00 0.00 0.00 45 1016.4
20260502161526 42 304 0.0 5.0 0.00 0.00 0.00 43 1016.5
20260502151513 41 315 1.0 4.0 0.00 0.00 0.00 47 1016.8
20260502123001 38 292 1.0 5.0 0.00 0.00 0.00 51 1016.9
20260502121600 38 302 2.0 5.0 0.00 0.00 0.00 53 1016.8
20260502120119 37 302 2.0 5.0 0.00 0.00 0.00 54 1016.8
20260502114604 37 305 2.0 6.0 0.00 0.00 0.00 56 1016.8
20260502113122 37 316 4.0 8.0 0.00 0.00 0.00 58 1016.7
20260502111556 37 311 2.0 7.0 0.00 0.00 0.00 59 1016.6
20260502110054 37 330 4.0 8.0 0.00 0.00 0.00 59 1016.4
20260502104550 37 295 4.0 7.0 0.00 0.00 0.00 58 1016.4
20260502103050 37 269 1.0 7.0 0.00 0.00 0.00 59 1016.4
20260502101548 37 328 3.0 7.0 0.00 0.00 0.00 58 1016.2
20260502071529 38 311 3.0 7.0 0.00 0.00 0.00 53 1015.8
20260502070027 38 319 3.0 6.0 0.00 0.00 0.00 53 1015.9
20260502064528 38 295 2.0 4.0 0.00 0.00 0.00 54 1016.0
20260502063025 39 307 2.0 6.0 0.00 0.00 0.00 52 1016.0
20260502061524 39 319 3.0 9.0 0.00 0.00 0.00 52 1016.0
20260502060021 39 331 6.0 10.0 0.00 0.00 0.00 52 1016.0
20260502054519 39 306 1.0 4.0 0.00 0.00 0.00 52 1015.9
20260502053018 39 314 0.0 4.0 0.00 0.00 0.00 55 1015.9
20260502051524 39 271 1.0 5.0 0.00 0.00 0.00 54 1016.0
20260502050017 39 287 0.0 3.0 0.00 0.00 0.00 55 1016.0
20260502044515 39 291 1.0 4.0 0.00 0.00 0.00 55 1015.9
20260502043013 39 321 0.0 2.0 0.00 0.00 0.00 55 1015.8
20260502041512 38 317 1.0 3.0 0.00 0.00 0.00 54 1015.8
20260502040010 38 347 1.0 4.0 0.00 0.00 0.00 54 1015.8
20260502034509 39 323 2.0 4.0 0.00 0.00 0.00 54 1015.9
20260502033009 39 24 2.0 6.0 0.00 0.00 0.00 53 1015.8
20260502031508 39 352 3.0 5.0 0.00 0.00 0.00 53 1015.7
20260502030007 39 356 3.0 6.0 0.00 0.00 0.00 53 1015.7
20260502024506 39 347 4.0 7.0 0.00 0.00 0.00 53 1015.7
20260502023008 39 1 4.0 8.0 0.00 0.00 0.00 55 1015.8
20260502021506 38 18 6.0 10.0 0.00 0.00 0.00 55 1015.9
20260502020005 38 21 5.0 8.0 0.00 0.00 0.00 55 1015.8
20260502014506 38 18 8.0 12.0 0.00 0.00 0.00 56 1015.8
20260502013003 38 23 8.0 12.0 0.00 0.00 0.00 59 1015.6
20260502011501 38 11 11.0 14.0 0.00 0.00 0.00 57 1015.5